Regional Weather Roundup
Issued by NWS Sterling, VA

Home | Current Version | Previous Version | Graphics & Text | Print | Product List | Glossary On
Versions: 1 2 3 4 5 6 7 8 9 10 11 12 13 14 15 16 17 18 19 20 21 22 23 24 25 26 27 28
000
ASUS41 KLWX 292311
RWRLWX

REGIONAL WEATHER ROUNDUP
NATIONAL WEATHER SERVICE BALTIMORE MD/WASHINGTON DC
700 PM EDT MON AUG 29 2016

Note: "FAIR" indicates few or no clouds below 12,000 feet
with no significant weather and/or obstructions to visibility.
 TC=TEMPERATURE CELSIUS

 * =Non NWS site. Station does not report precipitation (e.g. rain,
    snow, etc.), thunder, or fog.

DCZ001-MDZ009-015-VAZ040>042-051-053>054-300000-
WASHINGTON METRO

CITY           SKY/WX    TMP DP  RH WIND       PRES   REMARKS
WASHINGTON NAT PTCLDY    90  66  45 N8        30.07S HX  92
DULLES         PTCLDY    89  66  46 VRB6      30.08S HX  91
ANDREWS AFB    CLEAR     86  70  57 SE3       30.07S HX  90
FT BELVOIR     CLEAR     85  73  66 SE2       30.07S HX  92
QUANTICO       PTCLDY    88  70  55 SW5       30.07F HX  93
COLLEGE PARK*  CLEAR     86  68  54 NW5       30.07S
LEESBURG*      CLEAR     90  72  55 CALM      30.09F HX  96
MANASSAS*      MOCLDY    88  70  55 CALM      30.07F HX  92
GAITHERSBURG*  CLEAR     84  70  61 CALM      30.12F

$$

MDZ006>007-011-014-300000-
BALTIMORE METRO

CITY           SKY/WX    TMP DP  RH WIND       PRES   REMARKS
BWI AIRPORT    PTCLDY    88  70  55 S3        30.06S HX  93
MD SCIENCE CTR   N/A     88  69  53 MISG      30.07S HX  92
MARTIN STATE   PTCLDY    86  75  70 CALM      30.08S HX  95
ANNAPOLIS      CLEAR     86  71  60 SE6       30.06F HX  91
FORT MEADE*    PTCLDY    81  73  78 CALM      30.09S

$$

MDZ012-015-019>023-300000-
MARYLAND EASTERN SHORE

CITY           SKY/WX    TMP DP  RH WIND       PRES   REMARKS
OCEAN CITY     PTCLDY    80  68  66 S5        30.08S
SALISBURY      CLEAR     85  71  63 SE8       30.07S HX  90
BAY BRIDGE AP* CLEAR     86  70  58 S3        30.07S HX  90
CAMBRIDGE*     CLEAR     82  68  61 CALM      30.07S
EASTON*        PTCLDY    86  73  66 CALM      30.11S HX  93

$$

MDZ017>025-300000-
SOUTHERN MARYLAND

CITY           SKY/WX    TMP DP  RH WIND       PRES   REMARKS
PATUXENT RIVER PTCLDY    84  68  58 S8        30.07S
ST INIGOES     CLEAR     83  69  62 S3        30.07S
LEONARDTOWN*   CLEAR     82  68  61 S3        30.09F

$$

MDZ003>005-300000-
NORTH CENTRAL MARYLAND

CITY           SKY/WX    TMP DP  RH WIND       PRES   REMARKS
FREDERICK*     CLEAR     88  75  66 S3        30.11S HX  97
HAGERSTOWN APT CLEAR     89  57  33 N10       30.10S

$$

MDZ501>502-300000-
WESTERN MARYLAND

CITY           SKY/WX    TMP DP  RH WIND       PRES   REMARKS
OAKLAND*       CLEAR     72  63  73 N3        30.26F
CUMBERLAND*    CLEAR     88  55  33 NW8       30.15S

$$

VAZ025>031-300000-
SHENANDOAH VALLEY

CITY           SKY/WX    TMP DP  RH WIND       PRES   REMARKS
WINCHESTER*    MOCLDY    88  66  48 CALM      30.11S HX  90
FRONT ROYAL*   FAIR      84  70  61 CALM      30.10S
LURAY*         FAIR      86  66  51 CALM      30.12S
NEW MARKET*    FAIR     N/A N/A N/A CALM      30.10S
STAUNTON*      CLEAR     85  65  52 E3        30.15S
WAYNESBORO*    FAIR      83  68  61 SE5       30.15S

$$

WVZ021-048>050-054>055-300000-
EASTERN WEST VIRGINIA PANHANDLE

CITY           SKY/WX    TMP DP  RH WIND       PRES   REMARKS
MARTINSBURG    CLEAR     90  62  39 N3        30.09S HX  90
PETERSBURG*    PTCLDY    88  67  48 NE3       30.12S HX  91

$$

VAZ036>039-050-300000-
CENTRAL FOOTHILLS

CITY           SKY/WX    TMP DP  RH WIND       PRES   REMARKS
CHARLOTTESVILL CLEAR     89  67  47 E5        30.10F HX  92
CULPEPER*      CLEAR     88  70  55 NW3       30.09S HX  92
ORANGE*          N/A     88  68  51 CALM      30.11  HX  91
GORDONSVILLE*  NOT AVBL
WARRENTON*     FAIR      88  63  42 NW5       30.08F

$$

VAZ055>057-300000-
NORTH AND CENTRAL PIEDMONT

CITY           SKY/WX    TMP DP  RH WIND       PRES   REMARKS
FREDERICKSBRG*   N/A     87  74  64 SE6       30.06F HX  95
STAFFORD*      CLEAR     87  67  52 SE3       30.11F HX  90

$$

NCZ024-NYZ072-PAZ021-071-VAZ022-071-300000-
OTHER REGIONAL OBSERVATIONS

CITY           SKY/WX    TMP DP  RH WIND       PRES   REMARKS
NEW YORK CITY  CLEAR     86  57  37 VRB6      30.11R
PHILADELPHIA   PTCLDY    90  56  31 N13       30.06R
PITTSBURGH     CLEAR     84  51  31 N9        30.18F
ROANOKE        PTCLDY    86  66  51 SE8       30.14F
RICHMOND       PTCLDY    86  64  47 E6        30.08F
RALEIGH        MOCLDY    84  61  45 NE7       30.09S

$$

ANZ530>537-300000-
MARINE OBSERVATIONS

STATION/POSITION TIME  TEMP    WIND        PRES
                       AIR SEA DIR/SP/G
                 (UTC) (F)     (DEG/KT/KT) (MB)
THOMAS PT LIGHT  2300   85 84  150/  3/  4 1019.5S
BALT KEY BRIDGE  2242   86     110/  5/  5   N/A
COVE POINT       2242   83      40/  2/  3   N/A
LEWISETTA        2242   85 86  180/  3/  3   N/A
SOLOMONS ISLAND  2242   85 84  120/  4/  5   N/A
PINEY POINT      2236          160/  6/  7   N/A

$$





USA.gov is the U.S. government's official web portal to all federal, state and local government web resources and services.